sat.trackr.live / text

‹ back to catalog

STARLINK-3192

NORAD 49767 · 2021-115AV

PAYLOAD ACTIVE UNKNOWN

§ Identity

Operator
Country
US
Launch date
2021-12-02
Launch site
AFETR
Launch vehicle
Mass (kg)
RCS (m²)

Purposes: comms

External: N2YO · Heavens-Above · Gunter

§ Orbital elements

Epoch: 2026-05-25T00:30:49.798080Z

Period
95.44 min
Inclination
53.2136°
Eccentricity
0.0000875
Mean motion
15.08836608 rev/d
Perigee alt
539.1 km
Apogee alt
540.4 km
Semi-major
6,917.9 km
B*
2.2491e-5
RAAN
156.4538°
Arg perigee
68.9907°
Mean anomaly
291.1179°
Rev number
24,720

§ Raw data

STARLINK-31921 49767U 21115AV  26145.02140970  .00000070  00000+0  22491-4 0  99922 49767  53.2136 156.4538 0000875  68.9907 291.1179 15.08836608247206

JSON: /api/v1/satellites/49767 · /tle

For live sub-satellite position, see the globe view (requires WebGL).

§ Visibility from observer

Set your observer location to see the next 7 days of passes ≥ 10°. The values pass through the URL so the page stays shareable.

No JS? Fill the form by hand. The geolocation button needs JavaScript.